FW6259 Weather Reports


time (UTC)temp
F
wind
direction
speed
knots
gust
knots
rain 1hr
in
rain 24hr
in
rain mn
in
humidity
%
barometer
mb
20260503021551 49 205 7.0 20.9 0.00 0.01 0.01 44 1020.1
20260503014551 49 143 9.6 21.7 0.00 0.01 0.01 42 1020.1
20260503013043 49 198 8.7 24.3 0.00 0.01 0.01 42 1019.7
20260503011606 50 181 6.1 23.5 0.00 0.01 0.01 43 1019.6
20260503010048 48 231 10.4 20.0 0.00 0.01 0.01 43 1019.5
20260503004550 47 148 10.4 23.5 0.00 0.01 0.01 45 1019.4
20260503003102 48 136 9.6 20.9 0.00 0.01 0.01 43 1019.3
20260503001558 48 145 8.7 17.4 0.00 0.01 0.01 44 1019.2
20260503000048 50 124 7.8 20.9 0.00 0.01 0.01 43 1019.0
20260502234558 50 163 7.8 19.1 0.00 0.01 0.01 43 1019.1
20260502233048 50 271 6.1 19.1 0.00 0.01 0.01 42 1019.0
20260502231501 50 191 10.4 18.2 0.00 0.01 0.01 41 1018.8
20260502230052 50 152 7.0 15.6 0.00 0.01 0.01 42 1018.8
20260502224554 50 180 11.3 18.2 0.00 0.01 0.01 42 1018.7
20260502223101 47 161 7.8 21.7 0.00 0.01 0.01 44 1018.3
20260502221554 49 233 7.8 20.0 0.00 0.01 0.01 45 1018.3
20260502220119 50 91 9.6 18.2 0.00 0.01 0.01 42 1018.2
20260502214502 51 229 7.0 14.8 0.00 0.01 0.01 43 1017.8
20260502213056 49 159 11.3 24.3 0.00 0.01 0.01 44 1017.7
20260502211552 49 179 9.6 28.7 0.00 0.01 0.01 44 1017.6
20260502210111 49 225 9.6 20.9 0.00 0.01 0.01 44 1017.5
20260502204607 49 185 8.7 19.1 0.00 0.01 0.01 46 1017.5
20260502203103 49 184 6.1 20.9 0.00 0.01 0.01 45 1017.1
20260502201549 49 199 7.8 24.3 0.00 0.01 0.01 46 1017.1
20260502200001 49 172 7.0 23.5 0.00 0.01 0.01 48 1016.7
20260502194556 48 160 13.0 23.5 0.00 0.01 0.01 49 1016.5
20260502193046 48 229 5.2 13.9 0.00 0.01 0.01 49 1016.3
20260502191501 46 165 5.2 20.9 0.00 0.01 0.01 52 1016.2
20260502190105 47 146 8.7 20.9 0.00 0.01 0.01 51 1016.0
20260502184546 47 179 8.7 19.1 0.00 0.01 0.01 51 1015.8
20260502183051 48 165 7.8 18.2 0.00 0.01 0.01 49 1015.6
20260502181604 47 211 8.7 20.9 0.00 0.01 0.01 50 1015.5
20260502163111 46 170 8.7 18.2 0.00 0.01 0.01 55 1014.1
20260502161557 46 162 8.7 18.2 0.00 0.01 0.01 55 1013.9
20260502151506 44 160 3.5 12.2 0.00 0.01 0.01 60 1013.0
20260502150106 43 204 3.5 14.8 0.00 0.01 0.01 62 1012.8
20260502123102 39 281 7.0 16.5 0.00 0.01 0.01 73 1011.2
20260502121505 38 252 6.1 9.6 0.00 0.01 0.01 75 1010.9
20260502114551 37 163 3.5 9.6 0.00 0.01 0.01 79 1010.6
20260502113041 37 152 5.2 13.9 0.00 0.01 0.01 80 1010.4
20260502111559 37 234 5.2 12.2 0.00 0.01 0.01 81 1010.2
20260502110052 37 148 4.3 15.6 0.00 0.01 0.01 81 1010.1
20260502104546 36 198 3.5 10.4 0.00 0.01 0.01 83 1009.7
20260502103101 36 229 3.5 13.9 0.00 0.01 0.01 84 1009.9
20260502101602 35 249 3.5 9.6 0.00 0.01 0.01 87 1009.4
20260502070053 38 188 4.3 12.2 0.00 0.00 0.00 82 1006.9
20260502064548 38 204 7.0 11.3 0.00 0.00 0.00 80 1006.8
20260502063059 39 176 5.2 14.8 0.00 0.00 0.00 78 1006.5
20260502061551 39 154 6.1 15.6 0.00 0.00 0.00 75 1006.1
20260502060044 40 136 5.2 14.8 0.00 0.00 0.00 74 1006.0
20260502054559 40 148 5.2 13.0 0.00 0.00 0.00 73 1006.1
20260502053048 41 165 0.9 7.0 0.00 0.00 0.00 71 1006.3
20260502051545 41 176 3.5 10.4 0.00 0.00 0.00 70 1006.4
20260502050056 41 108 1.7 4.3 0.00 0.00 0.00 65 1006.4
20260502044557 41 124 2.6 7.0 0.00 0.00 0.00 65 1006.7
20260502043051 42 125 2.6 6.1 0.00 0.00 0.00 62 1006.2
20260502041600 42 200 0.9 6.1 0.00 0.00 0.00 62 1006.3
20260502040059 42 136 0.9 7.0 0.00 0.00 0.00 64 1005.7
20260502034549 42 145 3.5 9.6 0.00 0.00 0.00 64 1005.8
20260502033045 43 134 2.6 11.3 0.00 0.00 0.00 64 1006.3
20260502031601 43 188 4.3 10.4 0.00 0.00 0.00 62 1006.6
20260502030050 44 193 7.8 15.6 0.00 0.00 0.00 59 1006.6
20260502024508 44 174 2.6 5.2 0.00 0.00 0.00 53 1006.9
20260502023059 44 119 2.6 8.7 0.00 0.00 0.00 56 1007.0